Lincoln, NE

6:23 AM CDT on October 20, 2017 (GMT -0500)
Lincoln Municipal

Weather History for KLNK - March, 2014

Change the Weather History Date:

Tuesday, March 18, 2014

  Actual Average Record
Temperature  
Mean Temperature 44 °F 41 °F  
Max Temperature 57 °F 53 °F 87 °F (1921)
Min Temperature 31 °F 29 °F -7 °F (1923)
Degree Days  
Heating Degree Days 21 24  
Month to date heating degree days 552 493  
Since 1 July heating degree days 5669 5196  
Cooling Degree Days 0 0  
Month to date cooling degree days 0 0  
Year to date cooling degree days 0 0  
Moisture  
Dew Point 27 °F    
Average Humidity 59    
Maximum Humidity 85    
Minimum Humidity 32    
Precipitation  
Precipitation 0.01 in 0.07 in 1.80 in (1979)
Month to date precipitation 0.06 0.97  
Year to date precipitation 0.92 2.38  
Snow  
Snow 0.10 in 0.10 in - ()
Month to date snowfall 0.7 3.1  
Since 1 July snowfall 17.7 22.8  
Snow Depth 0.00 in    
Sea Level Pressure  
Sea Level Pressure 29.60 in    
Wind  
Wind Speed 16 mph (North)    
Max Wind Speed 36 mph    
Max Gust Speed 42 mph    
Visibility 8 miles    
Events Snow    
T = Trace of Precipitation, MM = Missing Value Source: NWS Daily Summary

Daily Weather History Graph

Daily Weather History Graph

Search for Another Location

Airport or City:

Trip Planner

Search our weather history database for the weather conditions in past years. The results will help you decide how hot, cold, wet, or windy it might be!

Date:

Astronomy

Mar. 18, 2014 Rise Set
Actual Time 7:33 AM CDT 7:37 PM CDT
Civil Twilight 7:06 AM CDT 8:04 PM CDT
Nautical Twilight 6:34 AM CDT 8:36 PM CDT
Astronomical Twilight 6:01 AM CDT 9:08 PM CDT
Moon 9:56 PM CDT (3/18) 8:22 AM CDT (3/18)
Length of Visible Light 12h 58m
Length of Day
12h 03m
Waning Gibbous, 96% of the Moon is Illuminated
Mar 18
Waning Gibbous
Mar 23
Last Quarter
Mar 30
New
Apr 7
First Quarter
Apr 15
Full

Hourly Weather History & Observations

Time (CDT) Temp. Windchill Dew Point Humidity Pressure Visibility Wind Dir Wind Speed Gust Speed Precip Events Conditions
12:54 AM 45.0 °F 37.4 °F 27.0 °F 49% 29.44 in 10.0 mi South 18.4 mph - N/A   Clear
1:54 AM 44.1 °F 37.1 °F 27.0 °F 51% 29.45 in 10.0 mi South 15.0 mph - N/A   Clear
2:54 AM 39.0 °F 31.8 °F 26.1 °F 60% 29.44 in 10.0 mi SSE 11.5 mph - N/A   Clear
3:54 AM 41.0 °F 33.5 °F 26.1 °F 55% 29.41 in 10.0 mi SSE 13.8 mph - N/A   Clear
4:54 AM 41.0 °F 35.2 °F 25.0 °F 53% 29.40 in 10.0 mi South 9.2 mph - N/A   Clear
5:54 AM 41.0 °F 35.2 °F 26.1 °F 55% 29.41 in 10.0 mi SSE 9.2 mph - N/A   Clear
6:54 AM 41.0 °F 34.7 °F 25.0 °F 53% 29.42 in 10.0 mi SSE 10.4 mph - N/A   Clear
7:54 AM 41.0 °F 35.8 °F 24.1 °F 51% 29.42 in 10.0 mi ESE 8.1 mph - N/A   Clear
8:54 AM 41.0 °F 35.2 °F 25.0 °F 53% 29.44 in 10.0 mi SE 9.2 mph - N/A   Clear
9:54 AM 46.0 °F 41.4 °F 26.1 °F 46% 29.43 in 10.0 mi SSE 9.2 mph - N/A   Clear
10:54 AM 50.0 °F - 26.1 °F 39% 29.44 in 10.0 mi South 11.5 mph 17.3 mph N/A   Clear
11:54 AM 52.0 °F - 27.0 °F 38% 29.44 in 10.0 mi South 8.1 mph - N/A   Clear
12:54 PM 52.0 °F - 26.1 °F 37% 29.45 in 10.0 mi Variable 4.6 mph - N/A   Clear
1:54 PM 53.1 °F - 27.0 °F 37% 29.46 in 10.0 mi NW 3.5 mph - N/A   Clear
2:54 PM 55.0 °F - 27.0 °F 34% 29.47 in 10.0 mi North 12.7 mph - N/A   Partly Cloudy
3:54 PM 55.9 °F - 27.0 °F 33% 29.48 in 10.0 mi North 13.8 mph 18.4 mph N/A   Partly Cloudy
4:54 PM 54.0 °F - 27.0 °F 35% 29.51 in 10.0 mi North 18.4 mph - N/A   Overcast
5:54 PM 46.9 °F - 30.0 °F 52% 29.55 in 8.0 mi North 28.8 mph 38.0 mph N/A   Overcast
6:54 PM 44.1 °F 33.7 °F 30.0 °F 58% 29.61 in 9.0 mi North 32.2 mph 40.3 mph N/A   Scattered Clouds
7:54 PM 39.0 °F 26.8 °F 28.0 °F 65% 29.68 in 9.0 mi North 32.2 mph 42.6 mph N/A   Overcast
8:33 PM 37.0 °F 26.2 °F 28.0 °F 70% 29.72 in 9.0 mi NNW 21.9 mph 39.1 mph N/A   Overcast
8:41 PM 36.0 °F 23.5 °F 28.0 °F 73% 29.73 in 9.0 mi NNW 27.6 mph 34.5 mph N/A   Overcast
8:54 PM 35.1 °F 22.5 °F 28.9 °F 78% 29.76 in 8.0 mi NNW 26.5 mph 36.8 mph N/A   Overcast
9:37 PM 34.0 °F 20.8 °F 28.0 °F 79% 29.77 in 8.0 mi NNW 27.6 mph 34.5 mph N/A   Overcast
9:54 PM 33.1 °F 20.3 °F 28.0 °F 82% 29.80 in 6.0 mi NNW 24.2 mph - 0.00 in Snow Light Snow
10:06 PM 33.1 °F 19.6 °F 27.0 °F 78% 29.79 in 5.0 mi NNW 27.6 mph 38.0 mph 0.00 in Snow Light Snow
10:34 PM 32.0 °F 18.1 °F 28.9 °F 88% 29.80 in 2.5 mi NNW 27.6 mph 36.8 mph 0.00 in Snow Light Snow
10:42 PM 32.0 °F 17.9 °F 28.0 °F 85% 29.80 in 3.0 mi NNW 28.8 mph 36.8 mph 0.00 in Snow Light Snow
10:50 PM 32.0 °F 18.1 °F 28.4 °F 87% 29.81 in 1.8 mi North 27.6 mph 38.0 mph 0.00 in Snow Light Snow
10:54 PM 32.0 °F 18.6 °F 28.9 °F 88% 29.83 in 1.5 mi North 25.3 mph 38.0 mph 0.00 in Snow Light Snow
11:10 PM 32.0 °F 18.9 °F 28.9 °F 88% 29.82 in 1.8 mi NNW 24.2 mph 31.1 mph 0.00 in Snow Light Snow
11:24 PM 32.0 °F 18.6 °F 28.9 °F 88% 29.82 in 2.5 mi NNW 25.3 mph 33.4 mph 0.00 in Snow Light Snow
11:32 PM 32.0 °F 18.4 °F 28.9 °F 88% 29.82 in 3.0 mi NNW 26.5 mph 34.5 mph 0.00 in Snow Light Snow
11:52 PM 32.0 °F 19.5 °F 28.4 °F 87% 29.84 in 2.5 mi NNW 21.9 mph 31.1 mph 0.00 in Snow Light Snow
11:54 PM 32.0 °F 18.9 °F 28.9 °F 88% 29.86 in 2.5 mi NNW 24.2 mph 31.1 mph 0.00 in Snow Light Snow